contact:dominique.lefevre@mio.osupytheas.fr, maurice.libes@osupytheas.fr, didier.mallarino@osupytheas.fr
Project:EMSO http://www.emso-fr.org/EMSO-France
Depth: 2436.0 m
Title:EMSO Ligure Ouest : Data MII capteur MICROCAT
DateTime_Computer,Latitude,Longitude,Temperature,Conductivity,Pressure,DateTime_Instrument
DateTime_Computer,Latitude,Longitude,degC,S m-1,dbar,DateTime_Instrument
2023-04-05T00:02:12Z,42.805,6.029,13.3056,4.60112,2470.577,2023-4-05T02:05:03Z
2023-04-05T00:05:15Z,42.805,6.029,13.3057,4.60125,2470.577,2023-4-05T02:08:06Z
2023-04-05T00:08:18Z,42.805,6.029,13.3054,4.60131,2470.6,2023-4-05T02:11:09Z
2023-04-05T00:11:21Z,42.805,6.029,13.3054,4.60158,2470.6,2023-4-05T02:14:12Z
2023-04-05T00:14:24Z,42.805,6.029,13.3054,4.60142,2470.591,2023-4-05T02:17:15Z
2023-04-05T00:17:27Z,42.805,6.029,13.3051,4.60139,2470.591,2023-4-05T02:20:18Z
2023-04-05T00:20:30Z,42.805,6.029,13.3068,4.60157,2470.614,2023-4-05T02:23:21Z
2023-04-05T00:23:34Z,42.805,6.029,13.3061,4.60136,2470.577,2023-4-05T02:26:25Z
2023-04-05T00:26:37Z,42.805,6.029,13.3051,4.60143,2470.614,2023-4-05T02:29:28Z
2023-04-05T00:29:40Z,42.805,6.029,13.3051,4.60131,2470.577,2023-4-05T02:32:31Z
2023-04-05T00:32:43Z,42.805,6.029,13.3039,4.60147,2470.567,2023-4-05T02:35:34Z
2023-04-05T00:35:46Z,42.805,6.029,13.3050,4.60151,2470.591,2023-4-05T02:38:37Z
2023-04-05T00:38:49Z,42.805,6.029,13.3054,4.60131,2470.577,2023-4-05T02:41:40Z
2023-04-05T00:41:52Z,42.805,6.029,13.3048,4.60163,2470.6,2023-4-05T02:44:43Z
2023-04-05T00:44:55Z,42.805,6.029,13.3042,4.60133,2470.591,2023-4-05T02:47:46Z
2023-04-05T00:47:58Z,42.805,6.029,13.3054,4.60161,2470.591,2023-4-05T02:50:49Z
2023-04-05T00:51:01Z,42.805,6.029,13.3054,4.60190,2470.553,2023-4-05T02:53:52Z
2023-04-05T00:54:04Z,42.805,6.029,13.3048,4.60168,2470.577,2023-4-05T02:56:55Z
2023-04-05T00:57:07Z,42.805,6.029,13.3048,4.60157,2470.614,2023-4-05T02:59:58Z
2023-04-05T01:00:11Z,42.805,6.029,13.3045,4.60161,2470.591,2023-4-05T03:03:02Z
2023-04-05T01:03:14Z,42.805,6.029,13.3049,4.60150,2470.591,2023-4-05T03:06:05Z
2023-04-05T01:06:17Z,42.805,6.029,13.3053,4.60164,2470.577,2023-4-05T03:09:08Z
2023-04-05T01:09:20Z,42.805,6.029,13.3041,4.60144,2470.577,2023-4-05T03:12:11Z
2023-04-05T01:12:23Z,42.805,6.029,13.3046,4.60142,2470.577,2023-4-05T03:15:14Z
2023-04-05T01:15:26Z,42.805,6.029,13.3065,4.60147,2470.591,2023-4-05T03:18:17Z
2023-04-05T01:18:29Z,42.805,6.029,13.3061,4.60159,2470.614,2023-4-05T03:21:20Z
2023-04-05T01:21:32Z,42.805,6.029,13.3054,4.60142,2470.553,2023-4-05T03:24:23Z
2023-04-05T01:24:35Z,42.805,6.029,13.3044,4.60175,2470.577,2023-4-05T03:27:26Z
2023-04-05T01:27:38Z,42.805,6.029,13.3051,4.60173,2470.577,2023-4-05T03:30:29Z
2023-04-05T01:30:41Z,42.805,6.029,13.3052,4.60143,2470.577,2023-4-05T03:33:32Z
2023-04-05T01:33:44Z,42.805,6.029,13.3062,4.60147,2470.591,2023-4-05T03:36:35Z
2023-04-05T01:36:48Z,42.805,6.029,13.3063,4.60165,2470.6,2023-4-05T03:39:39Z
2023-04-05T01:39:51Z,42.805,6.029,13.3056,4.60169,2470.6,2023-4-05T03:42:42Z
2023-04-05T01:42:54Z,42.805,6.029,13.3062,4.60158,2470.577,2023-4-05T03:45:45Z
2023-04-05T01:45:57Z,42.805,6.029,13.3054,4.60162,2470.591,2023-4-05T03:48:48Z
2023-04-05T01:49:00Z,42.805,6.029,13.3059,4.60174,2470.591,2023-4-05T03:51:51Z
2023-04-05T01:52:03Z,42.805,6.029,13.3056,4.60173,2470.577,2023-4-05T03:54:54Z
2023-04-05T01:55:06Z,42.805,6.029,13.3070,4.60183,2470.6,2023-4-05T03:57:57Z
2023-04-05T01:58:09Z,42.805,6.029,13.3043,4.60173,2470.614,2023-4-05T04:01:00Z
2023-04-05T02:01:12Z,42.805,6.029,13.3060,4.60157,2470.577,2023-4-05T04:04:03Z
2023-04-05T02:04:15Z,42.805,6.029,13.3063,4.60152,2470.614,2023-4-05T04:07:06Z
2023-04-05T02:07:18Z,42.805,6.029,13.3063,4.60170,2470.591,2023-4-05T04:10:09Z
2023-04-05T02:10:21Z,42.805,6.029,13.3051,4.60140,2470.577,2023-4-05T04:13:12Z
2023-04-05T02:13:24Z,42.805,6.029,13.3051,4.60146,2470.6,2023-4-05T04:16:15Z
2023-04-05T02:16:27Z,42.805,6.029,13.3055,4.60155,2470.637,2023-4-05T04:19:18Z
2023-04-05T02:19:31Z,42.805,6.029,13.3048,4.60169,2470.614,2023-4-05T04:22:22Z
2023-04-05T02:22:34Z,42.805,6.029,13.3056,4.60139,2470.6,2023-4-05T04:25:25Z
2023-04-05T02:25:37Z,42.805,6.029,13.3055,4.60155,2470.6,2023-4-05T04:28:28Z
2023-04-05T02:28:40Z,42.805,6.029,13.3061,4.60152,2470.624,2023-4-05T04:31:31Z
2023-04-05T02:31:43Z,42.805,6.029,13.3048,4.60143,2470.614,2023-4-05T04:34:34Z
2023-04-05T02:34:46Z,42.805,6.029,13.3047,4.60155,2470.637,2023-4-05T04:37:37Z
2023-04-05T02:37:49Z,42.805,6.029,13.3041,4.60133,2470.614,2023-4-05T04:40:40Z
2023-04-05T02:40:52Z,42.805,6.029,13.3041,4.60142,2470.624,2023-4-05T04:43:43Z
2023-04-05T02:43:55Z,42.805,6.029,13.3046,4.60132,2470.6,2023-4-05T04:46:46Z
2023-04-05T02:46:58Z,42.805,6.029,13.3042,4.60182,2470.577,2023-4-05T04:49:49Z
2023-04-05T02:50:01Z,42.805,6.029,13.3057,4.60166,2470.624,2023-4-05T04:52:52Z
2023-04-05T02:53:04Z,42.805,6.029,13.3059,4.60146,2470.646,2023-4-05T04:55:55Z
2023-04-05T02:56:08Z,42.805,6.029,13.3057,4.60161,2470.624,2023-4-05T04:58:59Z
2023-04-05T02:59:11Z,42.805,6.029,13.3059,4.60160,2470.614,2023-4-05T05:02:02Z
2023-04-05T03:02:14Z,42.805,6.029,13.3054,4.60169,2470.61,2023-4-05T05:05:05Z
2023-04-05T03:05:17Z,42.805,6.029,13.3055,4.60176,2470.646,2023-4-05T05:08:08Z
2023-04-05T03:08:20Z,42.805,6.029,13.3060,4.60136,2470.646,2023-4-05T05:11:11Z
2023-04-05T03:11:23Z,42.805,6.029,13.3053,4.60147,2470.646,2023-4-05T05:14:14Z
2023-04-05T03:14:26Z,42.805,6.029,13.3045,4.60152,2470.637,2023-4-05T05:17:17Z
2023-04-05T03:17:29Z,42.805,6.029,13.3055,4.60151,2470.661,2023-4-05T05:20:20Z
2023-04-05T03:20:32Z,42.805,6.029,13.3070,4.60186,2470.661,2023-4-05T05:23:23Z
2023-04-05T03:23:35Z,42.805,6.029,13.3063,4.60157,2470.624,2023-4-05T05:26:26Z
2023-04-05T03:26:38Z,42.805,6.029,13.3090,4.60224,2470.67,2023-4-05T05:29:29Z
2023-04-05T03:29:41Z,42.805,6.029,13.3066,4.60183,2470.67,2023-4-05T05:32:32Z
2023-04-05T03:32:44Z,42.805,6.029,13.3078,4.60180,2470.661,2023-4-05T05:35:35Z
2023-04-05T03:35:47Z,42.805,6.029,13.3072,4.60191,2470.67,2023-4-05T05:38:39Z
2023-04-05T03:38:51Z,42.805,6.029,13.3066,4.60167,2470.67,2023-4-05T05:41:42Z
2023-04-05T03:41:54Z,42.805,6.029,13.3087,4.60191,2470.661,2023-4-05T05:44:45Z
2023-04-05T03:44:57Z,42.805,6.029,13.3067,4.60190,2470.684,2023-4-05T05:47:48Z
2023-04-05T03:48:00Z,42.805,6.029,13.3069,4.60201,2470.661,2023-4-05T05:50:51Z
2023-04-05T03:51:03Z,42.805,6.029,13.3101,4.60198,2470.707,2023-4-05T05:53:54Z
2023-04-05T03:54:06Z,42.805,6.029,13.3111,4.60200,2470.67,2023-4-05T05:56:57Z
2023-04-05T03:57:09Z,42.805,6.029,13.3108,4.60163,2470.67,2023-4-05T06:00:00Z
2023-04-05T04:00:12Z,42.805,6.029,13.3092,4.60150,2470.67,2023-4-05T06:03:03Z
2023-04-05T04:03:15Z,42.805,6.029,13.3067,4.60183,2470.684,2023-4-05T06:06:06Z
2023-04-05T04:06:18Z,42.805,6.029,13.3081,4.60149,2470.684,2023-4-05T06:09:09Z
2023-04-05T04:09:21Z,42.805,6.029,13.3056,4.60162,2470.67,2023-4-05T06:12:12Z
2023-04-05T04:12:24Z,42.805,6.029,13.3073,4.60157,2470.646,2023-4-05T06:15:15Z
2023-04-05T04:15:27Z,42.805,6.029,13.3094,4.60175,2470.707,2023-4-05T06:18:19Z
2023-04-05T04:18:31Z,42.805,6.029,13.3078,4.60112,2470.717,2023-4-05T06:21:22Z
2023-04-05T04:21:34Z,42.805,6.029,13.3083,4.60137,2470.684,2023-4-05T06:24:25Z
2023-04-05T04:24:37Z,42.805,6.029,13.3070,4.60150,2470.707,2023-4-05T06:27:28Z
2023-04-05T04:27:40Z,42.805,6.029,13.3083,4.60127,2470.707,2023-4-05T06:30:31Z
2023-04-05T04:30:43Z,42.805,6.029,13.3063,4.60157,2470.717,2023-4-05T06:33:34Z
2023-04-05T04:33:46Z,42.805,6.029,13.3072,4.60119,2470.717,2023-4-05T06:36:37Z
2023-04-05T04:36:49Z,42.805,6.029,13.3063,4.60129,2470.693,2023-4-05T06:39:40Z
2023-04-05T04:39:52Z,42.805,6.029,13.3059,4.60112,2470.717,2023-4-05T06:42:43Z
2023-04-05T04:42:55Z,42.805,6.029,13.3061,4.60109,2470.693,2023-4-05T06:45:46Z
2023-04-05T04:45:58Z,42.805,6.029,13.3062,4.60127,2470.717,2023-4-05T06:48:49Z
2023-04-05T04:49:01Z,42.805,6.029,13.3043,4.60109,2470.717,2023-4-05T06:51:52Z
2023-04-05T04:52:04Z,42.805,6.029,13.3053,4.60113,2470.74,2023-4-05T06:54:55Z
2023-04-05T04:55:07Z,42.805,6.029,13.3061,4.60114,2470.717,2023-4-05T06:57:59Z
2023-04-05T04:58:11Z,42.805,6.029,13.3054,4.60110,2470.73,2023-4-05T07:01:02Z
2023-04-05T05:01:14Z,42.805,6.029,13.3051,4.60122,2470.754,2023-4-05T07:04:05Z
2023-04-05T05:04:17Z,42.805,6.029,13.3051,4.60112,2470.763,2023-4-05T07:07:08Z
2023-04-05T05:07:20Z,42.805,6.029,13.3060,4.60106,2470.74,2023-4-05T07:10:11Z
2023-04-05T05:10:23Z,42.805,6.029,13.3056,4.60105,2470.74,2023-4-05T07:13:14Z
2023-04-05T05:13:26Z,42.805,6.029,13.3057,4.60112,2470.717,2023-4-05T07:16:17Z
2023-04-05T05:16:29Z,42.805,6.029,13.3062,4.60116,2470.754,2023-4-05T07:19:20Z
2023-04-05T05:19:32Z,42.805,6.029,13.3066,4.60130,2470.8,2023-4-05T07:22:23Z
2023-04-05T05:22:35Z,42.805,6.029,13.3063,4.60112,2470.754,2023-4-05T07:25:26Z
2023-04-05T05:25:38Z,42.805,6.029,13.3058,4.60107,2470.763,2023-4-05T07:28:29Z
2023-04-05T05:28:41Z,42.805,6.029,13.3057,4.60119,2470.763,2023-4-05T07:31:32Z
2023-04-05T05:31:44Z,42.805,6.029,13.3058,4.60123,2470.754,2023-4-05T07:34:35Z
2023-04-05T05:34:47Z,42.805,6.029,13.3055,4.60114,2470.8,2023-4-05T07:37:39Z
2023-04-05T05:37:51Z,42.805,6.029,13.3058,4.60117,2470.787,2023-4-05T07:40:42Z
2023-04-05T05:40:54Z,42.805,6.029,13.3051,4.60110,2470.8,2023-4-05T07:43:45Z
2023-04-05T05:43:57Z,42.805,6.029,13.3061,4.60118,2470.777,2023-4-05T07:46:48Z
2023-04-05T05:47:00Z,42.805,6.029,13.3061,4.60111,2470.777,2023-4-05T07:49:51Z
2023-04-05T05:50:03Z,42.805,6.029,13.3060,4.60117,2470.787,2023-4-05T07:52:54Z
2023-04-05T05:53:06Z,42.805,6.029,13.3068,4.60113,2470.8,2023-4-05T07:55:57Z
2023-04-05T05:56:09Z,42.805,6.029,13.3060,4.60113,2470.777,2023-4-05T07:59:00Z
2023-04-05T05:59:12Z,42.805,6.029,13.3056,4.60121,2470.763,2023-4-05T08:02:03Z
2023-04-05T06:02:15Z,42.805,6.029,13.3053,4.60114,2470.787,2023-4-05T08:05:06Z
2023-04-05T06:05:18Z,42.805,6.029,13.3057,4.60117,2470.8,2023-4-05T08:08:09Z
2023-04-05T06:08:21Z,42.805,6.029,13.3059,4.60117,2470.8,2023-4-05T08:11:12Z
2023-04-05T06:11:24Z,42.805,6.029,13.3063,4.60122,2470.8,2023-4-05T08:14:15Z
2023-04-05T06:14:27Z,42.805,6.029,13.3059,4.60122,2470.787,2023-4-05T08:17:19Z
2023-04-05T06:17:30Z,42.805,6.029,13.3063,4.60122,2470.787,2023-4-05T08:20:22Z
2023-04-05T06:20:34Z,42.805,6.029,13.3061,4.60122,2470.8,2023-4-05T08:23:25Z
2023-04-05T06:23:37Z,42.805,6.029,13.3060,4.60116,2470.777,2023-4-05T08:26:28Z
2023-04-05T06:26:40Z,42.805,6.029,13.3055,4.60122,2470.81,2023-4-05T08:29:31Z
2023-04-05T06:29:43Z,42.805,6.029,13.3056,4.60110,2470.763,2023-4-05T08:32:34Z
2023-04-05T06:32:47Z,42.805,6.029,13.3063,4.60117,2470.81,2023-4-05T08:35:38Z
2023-04-05T06:35:50Z,42.805,6.029,13.3057,4.60121,2470.773,2023-4-05T08:38:41Z
2023-04-05T06:38:53Z,42.805,6.029,13.3063,4.60130,2470.763,2023-4-05T08:41:44Z
2023-04-05T06:41:56Z,42.805,6.029,13.3057,4.60116,2470.81,2023-4-05T08:44:47Z
2023-04-05T06:44:59Z,42.805,6.029,13.3061,4.60122,2470.81,2023-4-05T08:47:50Z
2023-04-05T06:48:02Z,42.805,6.029,13.3063,4.60114,2470.81,2023-4-05T08:50:53Z
2023-04-05T06:51:05Z,42.805,6.029,13.3059,4.60122,2470.763,2023-4-05T08:53:56Z
2023-04-05T06:54:08Z,42.805,6.029,13.3061,4.60115,2470.8,2023-4-05T08:56:59Z
2023-04-05T06:57:11Z,42.805,6.029,13.3062,4.60122,2470.847,2023-4-05T09:00:02Z
2023-04-05T07:00:14Z,42.805,6.029,13.3061,4.60122,2470.847,2023-4-05T09:03:05Z
2023-04-05T07:03:17Z,42.805,6.029,13.3072,4.60119,2470.8,2023-4-05T09:06:09Z
2023-04-05T07:06:20Z,42.805,6.029,13.3061,4.60109,2470.81,2023-4-05T09:09:12Z
2023-04-05T07:09:24Z,42.805,6.029,13.3058,4.60114,2470.824,2023-4-05T09:12:15Z
2023-04-05T07:12:27Z,42.805,6.029,13.3057,4.60121,2470.824,2023-4-05T09:15:18Z
2023-04-05T07:15:30Z,42.805,6.029,13.3057,4.60115,2470.81,2023-4-05T09:18:21Z
2023-04-05T07:18:33Z,42.805,6.029,13.3066,4.60125,2470.833,2023-4-05T09:21:24Z
2023-04-05T07:21:36Z,42.805,6.029,13.3055,4.60110,2470.824,2023-4-05T09:24:27Z
2023-04-05T07:24:39Z,42.805,6.029,13.3056,4.60114,2470.81,2023-4-05T09:27:30Z
2023-04-05T07:27:42Z,42.805,6.029,13.3058,4.60132,2470.824,2023-4-05T09:30:33Z
2023-04-05T07:30:45Z,42.805,6.029,13.3061,4.60127,2470.787,2023-4-05T09:33:36Z
2023-04-05T07:33:48Z,42.805,6.029,13.3061,4.60121,2470.824,2023-4-05T09:36:39Z
2023-04-05T07:36:51Z,42.805,6.029,13.3061,4.60116,2470.787,2023-4-05T09:39:42Z
2023-04-05T07:39:54Z,42.805,6.029,13.3068,4.60134,2470.81,2023-4-05T09:42:45Z
2023-04-05T07:42:57Z,42.805,6.029,13.3061,4.60110,2470.8,2023-4-05T09:45:49Z
2023-04-05T07:46:00Z,42.805,6.029,13.3063,4.60124,2470.847,2023-4-05T09:48:52Z
2023-04-05T07:49:04Z,42.805,6.029,13.3067,4.60116,2470.8,2023-4-05T09:51:55Z
2023-04-05T07:52:07Z,42.805,6.029,13.3065,4.60117,2470.824,2023-4-05T09:54:58Z
2023-04-05T07:55:10Z,42.805,6.029,13.3065,4.60114,2470.763,2023-4-05T09:58:01Z
2023-04-05T07:58:13Z,42.805,6.029,13.3061,4.60110,2470.763,2023-4-05T10:01:04Z
2023-04-05T08:01:16Z,42.805,6.029,13.3056,4.60119,2470.777,2023-4-05T10:04:07Z
2023-04-05T08:04:19Z,42.805,6.029,13.3051,4.60109,2470.833,2023-4-05T10:07:10Z
2023-04-05T08:07:22Z,42.805,6.029,13.3052,4.60114,2470.777,2023-4-05T10:10:13Z
2023-04-05T08:10:25Z,42.805,6.029,13.3064,4.60105,2470.777,2023-4-05T10:13:16Z
2023-04-05T08:13:28Z,42.805,6.029,13.3050,4.60108,2470.81,2023-4-05T10:16:19Z
2023-04-05T08:16:31Z,42.805,6.029,13.3057,4.60109,2470.81,2023-4-05T10:19:22Z
2023-04-05T08:19:34Z,42.805,6.029,13.3053,4.60112,2470.81,2023-4-05T10:22:25Z
2023-04-05T08:22:37Z,42.805,6.029,13.3058,4.60107,2470.8,2023-4-05T10:25:29Z
2023-04-05T08:25:40Z,42.805,6.029,13.3054,4.60114,2470.787,2023-4-05T10:28:32Z
2023-04-05T08:28:44Z,42.805,6.029,13.3057,4.60113,2470.787,2023-4-05T10:31:35Z
2023-04-05T08:31:47Z,42.805,6.029,13.3056,4.60108,2470.763,2023-4-05T10:34:38Z
2023-04-05T08:34:50Z,42.805,6.029,13.3051,4.60105,2470.763,2023-4-05T10:37:41Z
2023-04-05T08:37:53Z,42.805,6.029,13.3056,4.60108,2470.824,2023-4-05T10:40:44Z
2023-04-05T08:40:56Z,42.805,6.029,13.3048,4.60110,2470.763,2023-4-05T10:43:47Z
2023-04-05T08:43:59Z,42.805,6.029,13.3047,4.60105,2470.787,2023-4-05T10:46:50Z
2023-04-05T08:47:02Z,42.805,6.029,13.3045,4.60111,2470.754,2023-4-05T10:49:53Z
2023-04-05T08:50:05Z,42.805,6.029,13.3051,4.60112,2470.74,2023-4-05T10:52:56Z
2023-04-05T08:53:08Z,42.805,6.029,13.3048,4.60106,2470.754,2023-4-05T10:55:59Z
2023-04-05T08:56:11Z,42.805,6.029,13.3048,4.60104,2470.777,2023-4-05T10:59:03Z
2023-04-05T08:59:14Z,42.805,6.029,13.3046,4.60102,2470.74,2023-4-05T11:02:06Z
2023-04-05T09:02:18Z,42.805,6.029,13.3046,4.60104,2470.717,2023-4-05T11:05:09Z
2023-04-05T09:05:21Z,42.805,6.029,13.3048,4.60109,2470.763,2023-4-05T11:08:12Z
2023-04-05T09:08:24Z,42.805,6.029,13.3051,4.60104,2470.74,2023-4-05T11:11:15Z
2023-04-05T09:11:27Z,42.805,6.029,13.3040,4.60110,2470.754,2023-4-05T11:14:18Z
2023-04-05T09:14:30Z,42.805,6.029,13.3054,4.60109,2470.763,2023-4-05T11:17:21Z
2023-04-05T09:17:33Z,42.805,6.029,13.3046,4.60103,2470.754,2023-4-05T11:20:24Z
2023-04-05T09:20:36Z,42.805,6.029,13.3043,4.60108,2470.73,2023-4-05T11:23:27Z
2023-04-05T09:23:39Z,42.805,6.029,13.3048,4.60102,2470.74,2023-4-05T11:26:30Z
2023-04-05T09:26:42Z,42.805,6.029,13.3048,4.60102,2470.754,2023-4-05T11:29:33Z
2023-04-05T09:29:45Z,42.805,6.029,13.3050,4.60107,2470.754,2023-4-05T11:32:36Z
2023-04-05T09:32:48Z,42.805,6.029,13.3046,4.60103,2470.74,2023-4-05T11:35:40Z
2023-04-05T09:35:51Z,42.805,6.029,13.3043,4.60108,2470.763,2023-4-05T11:38:43Z
2023-04-05T09:38:54Z,42.805,6.029,13.3049,4.60107,2470.73,2023-4-05T11:41:46Z
2023-04-05T09:41:58Z,42.805,6.029,13.3049,4.60105,2470.717,2023-4-05T11:44:49Z
2023-04-05T09:45:01Z,42.805,6.029,13.3046,4.60104,2470.73,2023-4-05T11:47:52Z
2023-04-05T09:48:04Z,42.805,6.029,13.3046,4.60105,2470.707,2023-4-05T11:50:55Z
2023-04-05T09:51:07Z,42.805,6.029,13.3051,4.60106,2470.707,2023-4-05T11:53:58Z
2023-04-05T09:54:10Z,42.805,6.029,13.3046,4.60108,2470.717,2023-4-05T11:57:01Z
2023-04-05T09:57:13Z,42.805,6.029,13.3054,4.60106,2470.73,2023-4-05T12:00:04Z
2023-04-05T10:00:16Z,42.805,6.029,13.3042,4.60101,2470.693,2023-4-05T12:03:07Z
2023-04-05T10:03:19Z,42.805,6.029,13.3046,4.60104,2470.73,2023-4-05T12:06:10Z
2023-04-05T10:06:22Z,42.805,6.029,13.3045,4.60107,2470.717,2023-4-05T12:09:13Z
2023-04-05T10:09:25Z,42.805,6.029,13.3050,4.60104,2470.693,2023-4-05T12:12:17Z
2023-04-05T10:12:28Z,42.805,6.029,13.3044,4.60099,2470.684,2023-4-05T12:15:20Z
2023-04-05T10:15:31Z,42.805,6.029,13.3044,4.60099,2470.693,2023-4-05T12:18:23Z
2023-04-05T10:18:35Z,42.805,6.029,13.3041,4.60102,2470.693,2023-4-05T12:21:26Z
2023-04-05T10:21:38Z,42.805,6.029,13.3043,4.60102,2470.67,2023-4-05T12:24:29Z
2023-04-05T10:24:41Z,42.805,6.029,13.3044,4.60105,2470.707,2023-4-05T12:27:32Z
2023-04-05T10:27:44Z,42.805,6.029,13.3040,4.60102,2470.693,2023-4-05T12:30:35Z
2023-04-05T10:30:46Z,42.805,6.029,13.3046,4.60101,2470.661,2023-4-05T12:33:37Z
2023-04-05T10:33:49Z,42.805,6.029,13.3038,4.60102,2470.684,2023-4-05T12:36:40Z
2023-04-05T10:36:52Z,42.805,6.029,13.3043,4.60102,2470.707,2023-4-05T12:39:44Z
2023-04-05T10:39:55Z,42.805,6.029,13.3043,4.60097,2470.693,2023-4-05T12:42:47Z
2023-04-05T10:42:59Z,42.805,6.029,13.3041,4.60101,2470.693,2023-4-05T12:45:50Z
2023-04-05T10:46:02Z,42.805,6.029,13.3045,4.60098,2470.646,2023-4-05T12:48:53Z
2023-04-05T10:49:05Z,42.805,6.029,13.3043,4.60102,2470.646,2023-4-05T12:51:56Z
2023-04-05T10:52:08Z,42.805,6.029,13.3042,4.60102,2470.67,2023-4-05T12:54:59Z
2023-04-05T10:55:11Z,42.805,6.029,13.3043,4.60100,2470.693,2023-4-05T12:58:02Z
2023-04-05T10:58:14Z,42.805,6.029,13.3036,4.60099,2470.661,2023-4-05T13:01:05Z
2023-04-05T11:01:17Z,42.805,6.029,13.3043,4.60103,2470.646,2023-4-05T13:04:08Z
2023-04-05T11:04:20Z,42.805,6.029,13.3054,4.60099,2470.67,2023-4-05T13:07:11Z
2023-04-05T11:07:23Z,42.805,6.029,13.3043,4.60100,2470.646,2023-4-05T13:10:14Z
2023-04-05T11:10:26Z,42.805,6.029,13.3039,4.60096,2470.646,2023-4-05T13:13:17Z
2023-04-05T11:13:29Z,42.805,6.029,13.3042,4.60101,2470.624,2023-4-05T13:16:21Z
2023-04-05T11:16:32Z,42.805,6.029,13.3034,4.60097,2470.646,2023-4-05T13:19:24Z
2023-04-05T11:19:35Z,42.805,6.029,13.3036,4.60097,2470.684,2023-4-05T13:22:27Z
2023-04-05T11:22:39Z,42.805,6.029,13.3041,4.60097,2470.637,2023-4-05T13:25:30Z
2023-04-05T11:25:42Z,42.805,6.029,13.3039,4.60097,2470.624,2023-4-05T13:28:33Z
2023-04-05T11:28:45Z,42.805,6.029,13.3046,4.60099,2470.661,2023-4-05T13:31:36Z
2023-04-05T11:31:48Z,42.805,6.029,13.3040,4.60100,2470.624,2023-4-05T13:34:39Z
2023-04-05T11:34:51Z,42.805,6.029,13.3041,4.60102,2470.661,2023-4-05T13:37:42Z
2023-04-05T11:37:54Z,42.805,6.029,13.3040,4.60093,2470.6,2023-4-05T13:40:45Z
2023-04-05T11:40:57Z,42.805,6.029,13.3044,4.60095,2470.624,2023-4-05T13:43:48Z
2023-04-05T11:44:00Z,42.805,6.029,13.3037,4.60096,2470.646,2023-4-05T13:46:51Z
2023-04-05T11:47:03Z,42.805,6.029,13.3039,4.60092,2470.637,2023-4-05T13:49:54Z
2023-04-05T11:50:06Z,42.805,6.029,13.3034,4.60092,2470.637,2023-4-05T13:52:58Z
2023-04-05T11:53:09Z,42.805,6.029,13.3031,4.60094,2470.637,2023-4-05T13:56:01Z
2023-04-05T11:56:12Z,42.805,6.029,13.3034,4.60092,2470.624,2023-4-05T13:59:04Z
2023-04-05T11:59:15Z,42.805,6.029,13.3034,4.60092,2470.586,2023-4-05T14:02:07Z
2023-04-05T12:02:19Z,42.805,6.029,13.3034,4.60088,2470.624,2023-4-05T14:05:10Z
2023-04-05T12:05:22Z,42.805,6.029,13.3034,4.60091,2470.624,2023-4-05T14:08:13Z
2023-04-05T12:08:25Z,42.805,6.029,13.3036,4.60087,2470.646,2023-4-05T14:11:16Z
2023-04-05T12:11:28Z,42.805,6.029,13.3026,4.60088,2470.624,2023-4-05T14:14:19Z
2023-04-05T12:14:31Z,42.805,6.029,13.3031,4.60081,2470.6,2023-4-05T14:17:22Z
2023-04-05T12:17:34Z,42.805,6.029,13.3026,4.60084,2470.624,2023-4-05T14:20:25Z
2023-04-05T12:20:37Z,42.805,6.029,13.3029,4.60087,2470.577,2023-4-05T14:23:28Z
2023-04-05T12:23:40Z,42.805,6.029,13.3035,4.60088,2470.637,2023-4-05T14:26:31Z
2023-04-05T12:26:43Z,42.805,6.029,13.3026,4.60087,2470.624,2023-4-05T14:29:35Z
2023-04-05T12:29:46Z,42.805,6.029,13.3026,4.60085,2470.624,2023-4-05T14:32:38Z
2023-04-05T12:32:49Z,42.805,6.029,13.3029,4.60091,2470.637,2023-4-05T14:35:41Z
2023-04-05T12:35:53Z,42.805,6.029,13.3026,4.60086,2470.6,2023-4-05T14:38:44Z
2023-04-05T12:38:56Z,42.805,6.029,13.3032,4.60084,2470.6,2023-4-05T14:41:47Z
2023-04-05T12:41:59Z,42.805,6.029,13.3028,4.60085,2470.6,2023-4-05T14:44:50Z
2023-04-05T12:45:02Z,42.805,6.029,13.3028,4.60082,2470.6,2023-4-05T14:47:53Z
2023-04-05T12:48:05Z,42.805,6.029,13.3029,4.60083,2470.6,2023-4-05T14:50:56Z
2023-04-05T12:51:08Z,42.805,6.029,13.3024,4.60083,2470.614,2023-4-05T14:53:59Z
2023-04-05T12:54:11Z,42.805,6.029,13.3033,4.60094,2470.6,2023-4-05T14:57:02Z
2023-04-05T12:57:14Z,42.805,6.029,13.3027,4.60081,2470.6,2023-4-05T15:00:05Z
2023-04-05T13:00:17Z,42.805,6.029,13.3034,4.60098,2470.614,2023-4-05T15:03:08Z
2023-04-05T13:03:20Z,42.805,6.029,13.3036,4.60087,2470.553,2023-4-05T15:06:12Z
2023-04-05T13:06:23Z,42.805,6.029,13.3026,4.60092,2470.577,2023-4-05T15:09:15Z
2023-04-05T13:09:26Z,42.805,6.029,13.3028,4.60085,2470.591,2023-4-05T15:12:18Z
2023-04-05T13:12:29Z,42.805,6.029,13.3032,4.60082,2470.591,2023-4-05T15:15:21Z
2023-04-05T13:15:33Z,42.805,6.029,13.3033,4.60085,2470.591,2023-4-05T15:18:24Z
2023-04-05T13:18:36Z,42.805,6.029,13.3029,4.60086,2470.577,2023-4-05T15:21:27Z
2023-04-05T13:21:39Z,42.805,6.029,13.3031,4.60102,2470.591,2023-4-05T15:24:30Z
2023-04-05T13:24:42Z,42.805,6.029,13.3031,4.60086,2470.614,2023-4-05T15:27:33Z
2023-04-05T13:27:45Z,42.805,6.029,13.3033,4.60088,2470.577,2023-4-05T15:30:36Z
2023-04-05T13:30:48Z,42.805,6.029,13.3031,4.60086,2470.577,2023-4-05T15:33:39Z
2023-04-05T13:33:51Z,42.805,6.029,13.3030,4.60087,2470.591,2023-4-05T15:36:42Z
2023-04-05T13:36:54Z,42.805,6.029,13.3034,4.60089,2470.577,2023-4-05T15:39:45Z
2023-04-05T13:39:57Z,42.805,6.029,13.3031,4.60092,2470.577,2023-4-05T15:42:48Z
2023-04-05T13:43:00Z,42.805,6.029,13.3030,4.60082,2470.577,2023-4-05T15:45:52Z
2023-04-05T13:46:03Z,42.805,6.029,13.3032,4.60089,2470.591,2023-4-05T15:48:55Z
2023-04-05T13:49:06Z,42.805,6.029,13.3029,4.60089,2470.577,2023-4-05T15:51:58Z
2023-04-05T13:52:10Z,42.805,6.029,13.3033,4.60088,2470.591,2023-4-05T15:55:01Z
2023-04-05T13:55:13Z,42.805,6.029,13.3034,4.60090,2470.553,2023-4-05T15:58:04Z
2023-04-05T13:58:16Z,42.805,6.029,13.3036,4.60090,2470.553,2023-4-05T16:01:07Z
2023-04-05T14:01:19Z,42.805,6.029,13.3036,4.60094,2470.567,2023-4-05T16:04:10Z
2023-04-05T14:04:22Z,42.805,6.029,13.3036,4.60086,2470.577,2023-4-05T16:07:13Z
2023-04-05T14:07:25Z,42.805,6.029,13.3038,4.60092,2470.553,2023-4-05T16:10:16Z
2023-04-05T14:10:28Z,42.805,6.029,13.3038,4.60086,2470.577,2023-4-05T16:13:19Z
2023-04-05T14:13:31Z,42.805,6.029,13.3037,4.60084,2470.577,2023-4-05T16:16:22Z
2023-04-05T14:16:34Z,42.805,6.029,13.3034,4.60090,2470.577,2023-4-05T16:19:26Z
2023-04-05T14:19:37Z,42.805,6.029,13.3033,4.60091,2470.567,2023-4-05T16:22:29Z
2023-04-05T14:22:40Z,42.805,6.029,13.3034,4.60087,2470.577,2023-4-05T16:25:32Z
2023-04-05T14:25:43Z,42.805,6.029,13.3031,4.60092,2470.577,2023-4-05T16:28:35Z
2023-04-05T14:28:46Z,42.805,6.029,13.3031,4.60097,2470.577,2023-4-05T16:31:38Z
2023-04-05T14:31:50Z,42.805,6.029,13.3035,4.60090,2470.577,2023-4-05T16:34:41Z
2023-04-05T14:34:53Z,42.805,6.029,13.3036,4.60089,2470.577,2023-4-05T16:37:44Z
2023-04-05T14:37:56Z,42.805,6.029,13.3035,4.60090,2470.567,2023-4-05T16:40:47Z
2023-04-05T14:40:59Z,42.805,6.029,13.3041,4.60086,2470.577,2023-4-05T16:43:50Z
2023-04-05T14:44:02Z,42.805,6.029,13.3041,4.60088,2470.544,2023-4-05T16:46:53Z
2023-04-05T14:47:05Z,42.805,6.029,13.3036,4.60087,2470.553,2023-4-05T16:49:56Z
2023-04-05T14:50:08Z,42.805,6.029,13.3029,4.60081,2470.577,2023-4-05T16:52:59Z
2023-04-05T14:53:11Z,42.805,6.029,13.3030,4.60088,2470.553,2023-4-05T16:56:03Z
2023-04-05T14:56:14Z,42.805,6.029,13.3042,4.60084,2470.553,2023-4-05T16:59:06Z
2023-04-05T14:59:17Z,42.805,6.029,13.3035,4.60088,2470.6,2023-4-05T17:02:09Z
2023-04-05T15:02:20Z,42.805,6.029,13.3037,4.60098,2470.591,2023-4-05T17:05:12Z
2023-04-05T15:05:23Z,42.805,6.029,13.3031,4.60089,2470.6,2023-4-05T17:08:15Z
2023-04-05T15:08:27Z,42.805,6.029,13.3029,4.60090,2470.591,2023-4-05T17:11:18Z
2023-04-05T15:11:30Z,42.805,6.029,13.3035,4.60089,2470.591,2023-4-05T17:14:21Z
2023-04-05T15:14:33Z,42.805,6.029,13.3043,4.60091,2470.563,2023-4-05T17:17:24Z